1495990800.72,43636,19.88,74616.0,7.27,-29.23,-29.39,0,*70
1495990801.97,43637,19.88,74616.5,7.27,-29.23,-29.35,0,*7D
1495990803.22,43638,19.88,74622.5,7.29,-29.01,-29.13,0,*78
1495990804.47,43639,19.88,74620.0,7.29,-29.29,-29.35,0,*77
1495990805.73,43640,19.88,74620.3,7.27,-29.51,-29.57,0,*7C
1495990806.99,43641,19.88,74618.3,7.27,-29.35,-29.57,0,*7F
1495990808.19,43642,19.88,74620.0,7.25,-29.23,-29.23,0,*7A
1495990809.41,43643,19.88,74620.3,7.27,-29.07,-29.07,0,*79
1495990810.65,43644,19.88,74618.5,7.27,-29.17,-29.07,0,*7F
1495990811.9,43645,19.88,74620.3,7.27,-28.91,-29.07,0,*71
1495990813.12,43646,19.88,74622.0,7.27,-29.07,-29.07,0,*7C
1495990814.37,43647,19.88,74620.3,7.27,-28.91,-29.07,0,*73
1495990815.58,43648,19.88,74620.3,7.25,-29.57,-29.67,0,*73
1495990816.81,43649,19.81,74618.0,7.27,-29.67,-29.67,0,*73
1495990818.05,43650,19.88,74620.8,7.25,-29.73,-29.73,0,*79
1495990819.29,43651,19.88,74620.0,7.27,-29.57,-29.57,0,*7A
1495990820.49,43652,19.88,74620.3,7.25,-29.57,-29.57,0,*7B
1495990821.71,43653,19.88,74620.8,7.27,-29.07,-29.23,0,*7E
1495990822.93,43654,19.88,74622.0,7.27,-29.07,-29.07,0,*7F
1495990824.18,43655,19.88,74620.5,7.25,-29.01,-29.01,0,*7C
1495990825.4,43656,19.88,74618.3,7.25,-29.01,-29.07,0,*79
1495990826.63,43657,19.88,74618.0,7.25,-28.85,-29.01,0,*73
1495990827.88,43658,19.88,74618.5,7.27,-29.01,-29.07,0,*75
1495990829.1,43659,19.88,74622.3,7.25,-29.01,-29.07,0,*76
1495990830.35,43660,19.88,74620.5,7.25,-29.01,-29.17,0,*7D
1495990831.63,43661,19.88,74620.3,7.27,-29.51,-29.51,0,*79
1495990832.86,43662,19.88,74622.3,7.25,-29.23,-29.35,0,*7F
1495990834.13,43663,19.88,74622.3,7.27,-28.79,-28.79,0,*7B
1495990835.36,43664,19.88,74622.8,7.25,-28.79,-28.85,0,*7D
1495990836.61,43665,19.88,74618.8,7.25,-29.01,-29.17,0,*78
1495990837.86,43666,19.88,74616.0,7.25,-29.01,-29.01,0,*7C
1495990839.11,43667,19.88,74620.0,7.25,-28.63,-28.79,0,*76
1495990840.35,43668,19.81,74616.3,7.25,-28.63,-28.79,0,*79
1495990841.58,43669,19.88,74618.5,7.27,-28.69,-28.69,0,*71
1495990842.82,43670,19.88,74622.0,7.27,-28.69,-28.79,0,*78
1495990844.07,43671,19.88,74620.3,7.25,-29.01,-29.17,0,*7D
1495990845.32,43672,19.88,74620.5,7.25,-29.01,-29.17,0,*7E
1495990846.54,43673,19.88,74618.3,7.25,-29.01,-29.07,0,*7E
1495990847.76,43674,19.88,74620.8,7.25,-28.63,-28.69,0,*75
1495990848.96,43675,19.88,74622.3,7.25,-28.85,-29.07,0,*75
1495990850.23,43676,19.88,74620.8,7.27,-29.01,-29.17,0,*78
1495990851.47,43677,19.88,74622.0,7.29,-28.79,-28.85,0,*73
1495990852.69,43678,19.88,74616.5,7.25,-28.85,-29.01,0,*7E
1495990853.94,43679,19.88,74622.0,7.27,-28.85,-29.01,0,*7D
1495990855.15,43680,19.88,74620.8,7.25,-28.85,-28.85,0,*74
1495990856.37,43681,19.88,74622.5,7.25,-28.91,-29.07,0,*7B
1495990857.63,43682,19.88,74620.0,7.25,-28.91,-29.01,0,*7E
1495990858.88,43683,19.88,74622.8,7.25,-28.79,-29.01,0,*79
1495990860.1,43684,19.88,74622.8,7.25,-29.01,-29.23,0,*70
1495990861.35,43685,19.88,74616.0,7.25,-29.01,-29.01,0,*71
1495990862.59,43686,19.88,74620.3,7.25,-28.79,-28.79,0,*72
1495990863.87,43687,19.88,74620.8,7.27,-28.63,-28.63,0,*71
1495990865.1,43688,19.88,74622.5,7.27,-28.69,-28.85,0,*7C
1495990866.32,43689,19.88,74622.3,7.25,-28.69,-28.79,0,*7C
1495990867.54,43690,19.88,74620.5,7.25,-28.69,-28.79,0,*74
1495990868.78,43691,19.88,74618.8,7.27,-28.69,-28.79,0,*77
1495990870.04,43692,19.88,74620.3,7.27,-28.79,-28.85,0,*76
1495990871.29,43693,19.88,74622.8,7.27,-28.53,-28.47,0,*71
1495990872.51,43694,19.88,74620.0,7.25,-28.31,-28.47,0,*70
1495990873.71,43695,19.88,74618.3,7.25,-28.53,-28.53,0,*70
1495990874.92,43696,19.88,74622.0,7.25,-28.85,-28.85,0,*73
1495990876.17,43697,19.88,74620.3,7.25,-28.79,-28.91,0,*74
1495990877.44,43698,19.88,74622.0,7.27,-28.79,-28.79,0,*7F
1495990878.64,43699,19.88,74620.0,7.25,-28.85,-29.07,0,*77
1495990879.89,43700,19.88,74622.0,7.27,-28.79,-28.69,0,*7E
1495990881.12,43701,19.88,74620.0,7.25,-28.53,-28.47,0,*79
1495990882.39,43702,19.88,74620.0,7.27,-28.79,-28.91,0,*7B
1495990883.62,43703,19.88,74620.3,7.29,-28.75,-28.85,0,*7D
1495990884.9,43704,19.88,74620.0,7.27,-28.79,-28.91,0,*7D
1495990886.14,43705,19.88,74620.5,7.29,-28.75,-28.79,0,*78
1495990887.4,43706,19.88,74618.8,7.27,-28.85,-29.01,0,*74
1495990888.63,43707,19.88,74620.3,7.29,-28.79,-28.85,0,*75
1495990889.91,43708,19.88,74620.3,7.27,-28.91,-29.01,0,*7F
1495990891.19,43709,19.88,74620.3,7.27,-29.35,-29.51,0,*74
1495990892.44,43710,19.88,74620.3,7.27,-29.17,-29.23,0,*79
1495990893.69,43711,19.88,74620.3,7.25,-28.79,-28.91,0,*7B
1495990894.97,43712,19.88,74624.5,7.27,-28.63,-28.63,0,*7C
1495990896.17,43713,19.88,74622.5,7.25,-28.53,-28.53,0,*7F
1495990897.4,43714,19.88,74622.0,7.27,-28.31,-28.53,0,*7E
1495990898.6,43715,19.88,74620.5,7.25,-28.69,-28.69,0,*79
1495990899.85,43716,19.88,74620.3,7.27,-28.37,-28.47,0,*7F
1495990901.07,43717,19.88,74622.5,7.27,-28.31,-28.37,0,*7F
1495990902.3,43718,19.88,74620.3,7.27,-28.53,-28.53,0,*76
1495990903.55,43719,19.88,74622.8,7.29,-28.63,-28.75,0,*7E
1495990904.78,43720,19.88,74622.8,7.27,-28.69,-28.85,0,*7F
1495990906.03,43721,19.88,74622.0,7.27,-28.79,-28.85,0,*7F
1495990907.28,43722,19.88,74620.5,7.29,-28.79,-28.79,0,*71
1495990908.51,43723,19.88,74620.5,7.29,-28.75,-28.85,0,*7F
1495990909.73,43724,19.88,74618.8,7.29,-28.79,-28.97,0,*77
1495990911.01,43725,19.88,74618.8,7.27,-28.91,-29.01,0,*70
1495990912.26,43726,19.88,74620.0,7.27,-28.85,-29.01,0,*76
1495990913.51,43727,19.88,74618.8,7.27,-28.91,-29.07,0,*74
1495990914.72,43728,19.88,74620.5,7.29,-28.85,-28.85,0,*7B
1495990915.97,43729,19.88,74620.5,7.29,-28.75,-28.79,0,*76
1495990917.22,43730,19.88,74620.8,7.27,-28.85,-28.91,0,*79
1495990918.45,43731,19.88,74620.8,7.25,-28.85,-28.91,0,*7A
1495990919.7,43732,19.88,74622.8,7.27,-28.85,-29.01,0,*73
1495990920.93,43733,19.88,74620.5,7.27,-28.69,-28.69,0,*7F
1495990922.13,43734,19.88,74620.3,7.29,-28.85,-28.97,0,*75
1495990923.38,43735,19.88,74620.5,7.27,-29.23,-29.35,0,*7E
1495990924.63,43736,19.88,74624.3,7.27,-29.17,-29.23,0,*7D
1495990925.85,43737,19.88,74620.3,7.25,-28.85,-29.17,0,*73
1495990927.08,43738,19.88,74620.5,7.25,-28.79,-28.85,0,*75
1495990928.31,43739,19.88,74622.0,7.25,-28.85,-28.91,0,*72
1495990929.51,43740,19.88,74620.0,7.25,-29.07,-29.23,0,*7F
1495990930.73,43741,19.88,74622.0,7.25,-29.23,-29.35,0,*7F
1495990931.95,43742,19.88,74622.5,7.27,-29.07,-29.23,0,*7F
1495990933.18,43743,19.88,74620.5,7.25,-29.01,-29.23,0,*7A
1495990934.4,43744,19.88,74622.0,7.21,-29.07,-29.39,0,*74
1495990935.63,43745,19.88,74618.8,7.21,-29.23,-29.29,0,*72
1495990936.88,43746,19.88,74622.3,7.25,-29.01,-29.35,0,*78
1495990938.13,43747,19.88,74620.0,7.25,-29.17,-29.39,0,*72
1495990939.32,43748,19.88,74620.0,7.25,-29.07,-29.23,0,*77
1495990940.57,43749,19.88,74620.3,7.25,-29.17,-29.35,0,*70
1495990941.8,43750,19.88,74618.5,7.25,-29.23,-29.51,0,*7D
1495990943.04,43751,19.88,74620.0,7.21,-29.39,-29.57,0,*75
1495990944.29,43752,19.88,74620.8,7.19,-29.17,-29.45,0,*72
1495990945.48,43753,19.88,74616.0,7.25,-29.07,-29.23,0,*7D
1495990946.76,43754,19.88,74618.3,7.19,-29.17,-29.35,0,*73
1495990948.01,43755,19.88,74616.0,7.21,-29.13,-29.39,0,*71
1495990949.28,43756,19.88,74616.5,7.19,-29.29,-29.51,0,*7E
1495990950.51,43757,19.88,74618.0,7.19,-29.45,-29.61,0,*76
1495990951.76,43758,19.88,74620.3,7.19,-29.51,-29.79,0,*75
1495990953.01,43759,19.88,74616.8,7.19,-29.67,-30.01,0,*76
1495990954.27,43760,19.88,74616.8,7.15,-29.83,-30.01,0,*7A
1495990955.53,43761,19.88,74618.8,7.15,-29.67,-29.89,0,*79
1495990956.76,43762,19.88,74618.0,7.17,-29.51,-29.79,0,*72
1495990957.96,43763,19.88,74616.8,7.17,-29.67,-29.95,0,*74
1495990959.23,43764,19.88,74618.8,7.15,-29.67,-29.89,0,*7C
1495990960.46,43765,19.88,74618.8,7.15,-29.57,-29.83,0,*74
1495990961.71,43766,19.88,74616.8,7.11,-29.61,-29.89,0,*7C
1495990962.93,43767,19.88,74618.8,7.11,-29.61,-29.79,0,*72
1495990964.16,43768,19.88,74618.3,7.11,-29.57,-29.79,0,*78
1495990965.36,43769,19.88,74618.0,7.13,-29.23,-29.57,0,*74
1495990966.59,43770,19.88,74618.0,7.13,-29.07,-29.35,0,*7E
1495990967.84,43771,19.94,74622.0,7.11,-29.23,-29.35,0,*7B
1495990969.08,43772,19.88,74618.3,7.11,-29.01,-29.23,0,*7F
1495990970.35,43773,19.88,74618.3,7.11,-28.75,-28.91,0,*74
1495990971.57,43774,19.88,74616.3,7.11,-28.85,-29.07,0,*72
1495990972.8,43775,19.94,74622.3,7.13,-29.17,-29.57,0,*7E
1495990974.03,43776,19.88,74620.0,7.13,-29.51,-29.67,0,*7C
1495990975.29,43777,19.88,74616.5,7.13,-29.39,-29.35,0,*74
1495990976.53,43778,19.88,74618.5,7.11,-29.01,-29.23,0,*75
1495990977.8,43779,19.88,74620.3,7.11,-29.01,-29.29,0,*7E
1495990979.07,43780,19.88,74618.0,7.11,-29.13,-29.39,0,*7A
1495990980.3,43781,19.88,74620.8,7.13,-29.35,-29.67,0,*76
1495990981.53,43782,19.88,74616.0,7.13,-29.57,-29.73,0,*74
1495990982.8,43783,19.88,74618.5,7.11,-29.29,-29.73,0,*7E
1495990984.02,43784,19.88,74616.8,7.11,-29.61,-29.79,0,*7F
1495990985.25,43785,19.94,74620.5,7.07,-29.67,-29.95,0,*7D
1495990986.5,43786,19.88,74616.8,7.09,-29.17,-29.51,0,*7F
1495990987.73,43787,19.88,74616.5,7.09,-29.07,-29.35,0,*7D
1495990988.98,43788,19.88,74616.5,7.07,-28.91,-29.07,0,*73
1495990990.22,43789,19.88,74618.3,7.11,-28.69,-28.91,0,*7C
1495990991.47,43790,19.88,74618.3,7.09,-29.13,-29.35,0,*7E
1495990992.67,43791,19.88,74618.0,7.09,-29.79,-29.95,0,*79
1495990993.87,43792,19.88,74618.8,7.09,-29.95,-30.27,0,*79
1495990995.1,43793,19.94,74620.5,7.09,-30.01,-30.33,0,*78
1495990996.33,43794,19.88,74618.5,7.07,-29.95,-30.27,0,*71
1495990997.55,43795,19.88,74616.3,7.07,-29.83,-30.11,0,*72
1495990998.78,43796,19.94,74618.8,7.07,-29.83,-30.11,0,*71
1495991000.01,43797,19.94,74618.5,7.07,-29.67,-29.95,0,*7E
1495991001.27,43798,19.94,74616.3,7.03,-29.57,-29.89,0,*7B
1495991002.53,43799,19.88,74612.8,7.05,-29.51,-29.73,0,*7F
1495991003.76,43800,19.88,74614.5,7.05,-29.39,-29.83,0,*71
1495991004.99,43801,19.88,74614.0,7.05,-29.57,-29.73,0,*77
1495991006.26,43802,19.88,74616.0,7.03,-29.73,-29.89,0,*71
1495991007.49,43803,19.94,74616.8,7.05,-29.83,-30.05,0,*75
1495991008.72,43804,19.94,74616.8,7.07,-29.67,-29.83,0,*7C
1495991009.96,43805,19.94,74616.3,7.05,-29.39,-29.67,0,*7E
1495991011.16,43806,19.94,74616.0,7.05,-29.67,-29.83,0,*7C
1495991012.4,43807,19.88,74612.8,7.05,-29.57,-29.89,0,*74
1495991013.67,43808,19.94,74618.8,7.03,-30.01,-30.17,0,*79
1495991014.93,43809,19.94,74618.0,7.03,-29.83,-30.01,0,*7D
1495991016.21,43810,19.94,74618.3,7.03,-30.01,-30.17,0,*70
1495991017.43,43811,19.94,74616.5,6.99,-30.23,-30.45,0,*74
1495991018.66,43812,19.88,74612.8,6.99,-30.11,-30.27,0,*72
1495991019.89,43813,19.88,74614.5,6.97,-30.17,-30.33,0,*7E
1495991021.13,43814,19.94,74618.5,6.97,-30.01,-30.01,0,*7F
1495991022.36,43815,19.88,74616.0,6.97,-30.11,-30.17,0,*78
1495991023.55,43816,19.94,74616.5,6.97,-29.83,-30.11,0,*7E
1495991024.8,43817,19.88,74614.0,6.99,-30.05,-30.23,0,*76
1495991026.0,43818,19.94,74618.5,6.97,-30.27,-30.45,0,*77
1495991027.28,43819,19.94,74616.8,6.95,-30.17,-30.17,0,*70
1495991028.51,43820,19.94,74614.3,6.95,-29.83,-30.11,0,*79
1495991029.73,43821,19.94,74614.3,6.93,-29.67,-29.73,0,*78
1495991030.96,43822,19.94,74618.3,6.93,-29.57,-29.73,0,*78
1495991032.19,43823,19.94,74616.8,6.93,-29.39,-29.57,0,*77
1495991033.42,43824,19.94,74616.3,6.93,-29.83,-30.01,0,*7A
1495991034.65,43825,19.94,74616.0,6.93,-29.83,-30.01,0,*7B
1495991035.9,43826,19.94,74616.8,6.95,-30.17,-30.33,0,*7A
1495991037.12,43827,19.94,74614.3,6.89,-30.23,-30.39,0,*7B
1495991038.37,43828,19.94,74618.8,6.91,-30.23,-30.39,0,*7D
1495991039.62,43829,19.94,74620.3,6.89,-30.39,-30.55,0,*74
1495991040.84,43830,19.94,74618.0,6.89,-30.27,-30.39,0,*79
1495991042.07,43831,19.94,74618.3,6.89,-30.27,-30.39,0,*78
1495991043.32,43832,19.94,74616.0,6.91,-30.23,-30.39,0,*76
1495991044.54,43833,19.94,74614.3,6.89,-30.05,-30.11,0,*70
1495991045.79,43834,19.94,74618.5,6.87,-30.01,-30.11,0,*7D
1495991047.01,43835,19.94,74614.8,6.87,-30.11,-30.27,0,*78
1495991048.27,43836,19.94,74618.0,6.87,-29.95,-30.17,0,*7C
1495991049.5,43837,19.94,74618.5,6.87,-29.79,-29.83,0,*7A
1495991050.76,43838,19.94,74616.3,6.87,-29.95,-30.01,0,*75
1495991051.98,43839,19.94,74620.3,6.87,-30.11,-30.11,0,*71
1495991053.23,43840,19.94,74616.5,6.87,-30.01,-30.11,0,*7E
1495991054.44,43841,19.94,74618.8,6.85,-30.01,-30.11,0,*7D
1495991055.64,43842,19.94,74620.3,6.85,-29.95,-30.11,0,*7B
1495991056.87,43843,19.94,74616.5,6.85,-29.95,-30.01,0,*7B
1495991058.1,43844,19.94,74616.0,6.85,-29.95,-30.01,0,*7C
1495991059.3,43845,19.94,74618.8,6.85,-29.83,-29.95,0,*7F
1495991060.54,43846,19.94,74618.0,6.85,-29.51,-29.67,0,*7E
1495991061.77,43847,19.94,74620.3,6.85,-29.51,-29.67,0,*7F
1495991063.01,43848,19.94,74618.0,6.85,-29.51,-29.67,0,*70
1495991064.24,43849,19.94,74616.5,6.85,-29.51,-29.61,0,*77
1495991065.49,43850,19.94,74616.8,6.85,-29.39,-29.39,0,*7C
1495991066.7,43851,19.94,74618.0,6.83,-29.45,-29.45,0,*7B
1495991067.9,43852,19.94,74618.3,6.83,-29.67,-29.67,0,*78
1495991069.13,43853,19.94,74618.5,6.85,-29.67,-29.73,0,*7A
1495991070.36,43854,19.94,74620.0,6.83,-29.73,-29.83,0,*71
1495991071.6,43855,19.94,74618.8,6.83,-30.01,-30.05,0,*7B
1495991072.86,43856,19.94,74616.8,6.83,-29.89,-29.89,0,*7C
1495991074.11,43857,19.94,74616.5,6.83,-29.73,-29.73,0,*7D
1495991075.32,43858,19.94,74618.8,6.83,-29.57,-29.57,0,*72
1495991076.56,43859,19.94,74622.5,6.81,-29.73,-29.83,0,*7E
1495991077.81,43860,19.94,74620.0,6.81,-29.83,-29.73,0,*74
1495991079.04,43861,19.94,74616.8,6.81,-29.67,-29.57,0,*79
1495991080.26,43862,19.94,74616.5,6.83,-29.67,-29.73,0,*7E
1495991081.51,43863,19.94,74618.5,6.83,-29.73,-29.73,0,*7A
1495991082.76,43864,19.94,74614.8,6.81,-29.73,-29.83,0,*70
1495991083.99,43865,19.94,74618.8,6.81,-29.57,-29.57,0,*7E
1495991085.21,43866,19.94,74618.0,6.79,-29.61,-29.73,0,*79
1495991086.46,43867,19.94,74614.8,6.79,-29.89,-29.89,0,*7B
1495991087.7,43868,19.94,74616.5,6.79,-30.05,-30.05,0,*74
1495991088.93,43869,19.94,74614.5,6.75,-30.01,-29.83,0,*7B
1495991090.18,43870,19.94,74618.8,6.75,-30.01,-30.01,0,*71
1495991091.41,43871,19.94,74618.3,6.75,-29.95,-30.01,0,*75
1495991092.61,43872,19.94,74614.0,6.75,-29.83,-29.95,0,*74
1495991093.81,43873,19.94,74618.3,6.75,-29.67,-29.79,0,*7D
1495991095.04,43874,19.94,74616.0,6.73,-29.61,-29.67,0,*75
1495991096.27,43875,19.94,74618.8,6.73,-29.57,-29.57,0,*72
1495991097.48,43876,19.94,74620.0,6.75,-29.57,-29.61,0,*72
1495991098.69,43877,19.94,74620.3,6.75,-29.57,-29.45,0,*75
1495991099.89,43878,19.94,74622.3,6.75,-29.61,-29.61,0,*79
1495991101.12,43879,19.94,74616.8,6.73,-29.57,-29.57,0,*7E
1495991102.37,43880,19.94,74616.8,6.73,-29.57,-29.39,0,*70
1495991103.65,43881,19.94,74620.3,6.73,-29.39,-29.39,0,*79
1495991104.93,43882,19.94,74616.5,6.73,-29.39,-29.39,0,*7A
1495991106.2,43883,19.94,74616.0,6.73,-29.39,-29.39,0,*7B
1495991107.45,43884,19.94,74616.3,6.75,-29.29,-29.39,0,*7B
1495991108.65,43885,19.94,74618.5,6.75,-29.07,-29.07,0,*7B
1495991109.89,43886,19.94,74616.5,6.75,-29.13,-29.29,0,*71
1495991111.12,43887,19.94,74618.3,6.75,-29.39,-29.23,0,*72
1495991112.34,43888,19.94,74618.5,6.75,-29.23,-29.29,0,*7C
1495991113.6,43889,19.94,74622.8,6.73,-29.29,-29.29,0,*71
1495991114.85,43890,19.94,74616.5,6.73,-29.23,-29.29,0,*73
1495991116.11,43891,19.94,74618.3,6.73,-29.29,-29.29,0,*78
1495991117.39,43892,19.94,74618.0,6.73,-29.39,-29.39,0,*7B
1495991118.67,43893,19.94,74618.5,6.73,-29.39,-29.39,0,*7A
1495991119.89,43894,19.94,74616.5,6.73,-29.23,-29.23,0,*7D
1495991121.15,43895,19.94,74618.0,6.73,-29.13,-29.13,0,*7C
1495991122.39,43896,19.94,74618.8,6.73,-28.97,-29.13,0,*72
1495991123.64,43897,19.94,74618.3,6.73,-28.97,-29.13,0,*73
1495991124.89,43898,19.94,74616.5,6.73,-28.91,-28.97,0,*77
1495991126.13,43899,19.94,74616.8,6.73,-29.23,-29.29,0,*7A
1495991127.39,43900,19.94,74616.0,6.71,-29.35,-29.35,0,*73
1495991128.62,43901,19.94,74618.8,6.73,-29.45,-29.45,0,*70
1495991129.9,43902,19.94,74618.8,6.73,-29.39,-29.39,0,*73
1495991131.14,43903,19.94,74616.8,6.73,-29.13,-29.23,0,*71
1495991132.41,43904,19.94,74618.0,6.73,-29.13,-29.29,0,*7C
1495991133.65,43905,19.94,74618.8,6.73,-29.13,-29.23,0,*77
1495991134.87,43906,19.94,74616.5,6.73,-29.07,-29.07,0,*77
1495991136.11,43907,19.94,74622.0,6.73,-29.13,-29.23,0,*75
1495991137.35,43908,19.94,74620.3,6.71,-29.13,-29.13,0,*7B
1495991138.62,43909,19.94,74618.8,6.73,-29.13,-29.13,0,*78
1495991139.86,43910,19.94,74618.8,6.73,-29.23,-29.13,0,*73
1495991141.08,43911,19.94,74620.5,6.71,-28.97,-29.01,0,*7D
1495991142.3,43912,19.94,74616.5,6.73,-29.07,-29.07,0,*72
1495991143.55,43913,19.94,74618.0,6.75,-29.39,-29.29,0,*74
1495991144.83,43914,19.94,74620.5,6.73,-29.39,-29.39,0,*74
1495991146.08,43915,19.94,74620.5,6.73,-29.45,-29.39,0,*7E
1495991147.31,43916,19.94,74620.5,6.73,-29.61,-29.67,0,*70
1495991148.54,43917,19.94,74616.0,6.71,-29.73,-29.83,0,*7A
1495991149.8,43918,19.94,74616.5,6.71,-29.89,-29.89,0,*7A
1495991151.05,43919,19.94,74622.0,6.71,-30.01,-30.01,0,*7B
1495991152.27,43920,19.94,74620.5,6.69,-29.61,-29.61,0,*78
1495991153.48,43921,19.94,74616.0,6.71,-29.45,-29.45,0,*70
1495991154.71,43922,19.94,74616.8,6.71,-29.51,-29.45,0,*76
1495991155.95,43923,19.94,74620.5,6.71,-29.51,-29.67,0,*77
1495991157.15,43924,19.94,74616.5,6.71,-29.61,-29.61,0,*75
1495991158.37,43925,19.94,74618.3,6.69,-29.61,-29.61,0,*7D
1495991159.61,43926,19.94,74616.5,6.67,-29.89,-29.95,0,*7D
1495991160.84,43927,19.94,74618.8,6.67,-29.89,-29.95,0,*7C
1495991162.04,43928,19.94,74618.8,6.67,-29.95,-29.79,0,*7C
1495991163.27,43929,19.94,74616.0,6.67,-29.67,-29.73,0,*7A
1495991164.51,43930,19.94,74620.3,6.67,-29.95,-30.05,0,*76
1495991165.76,43931,19.94,74616.8,6.65,-30.11,-30.01,0,*75
1495991167.01,43932,19.94,74616.5,6.65,-29.95,-30.01,0,*72
1495991168.24,43933,19.94,74618.5,6.65,-29.83,-29.95,0,*71
1495991169.47,43934,19.94,74618.5,6.63,-29.95,-30.01,0,*72
1495991170.72,43935,19.94,74616.8,6.63,-30.01,-30.01,0,*76
1495991171.94,43936,19.94,74618.0,6.63,-30.01,-29.95,0,*70
1495991173.15,43937,19.94,74616.8,6.63,-29.79,-29.83,0,*71
1495991174.38,43938,19.94,74612.8,6.65,-29.57,-29.57,0,*7D
1495991175.62,43939,19.94,74618.0,6.63,-29.29,-29.29,0,*7A
1495991176.89,43940,19.94,74616.3,6.61,-29.13,-29.29,0,*7F
1495991178.12,43941,19.94,74616.8,6.63,-28.79,-28.69,0,*74
1495991179.37,43942,19.94,74616.0,6.63,-28.79,-28.91,0,*70
1495991180.57,43943,19.94,74618.0,6.63,-28.97,-28.97,0,*77
1495991181.78,43944,19.94,74618.0,6.63,-29.13,-29.07,0,*75
1495991183.0,43945,19.94,74622.3,6.63,-29.23,-29.29,0,*7B
1495991184.23,43946,19.94,74618.0,6.63,-29.23,-29.39,0,*79
1495991185.42,43947,19.94,74618.8,6.63,-29.23,-29.23,0,*73
1495991186.62,43948,19.94,74616.3,6.63,-28.97,-29.07,0,*74
1495991187.84,43949,19.94,74622.0,6.63,-29.13,-29.07,0,*78
1495991189.03,43950,19.94,74618.5,6.63,-29.23,-29.07,0,*73
1495991190.28,43951,19.94,74614.8,6.63,-28.91,-29.13,0,*7F
1495991191.55,43952,19.94,74618.0,6.65,-29.29,-29.29,0,*71
1495991192.77,43953,19.94,74616.5,6.63,-29.23,-29.13,0,*75
1495991194.01,43954,19.94,74622.0,6.63,-28.79,-28.75,0,*7D
1495991195.27,43955,19.94,74620.0,6.63,-28.79,-28.91,0,*76
1495991196.46,43956,19.94,74622.0,6.63,-28.97,-28.97,0,*73
1495991197.68,43957,19.94,74616.0,6.63,-29.23,-29.29,0,*78
1495991198.93,43958,19.94,74620.5,6.63,-29.29,-29.29,0,*7D
1495991200.15,43959,19.94,74622.0,6.63,-29.23,-29.29,0,*76
1495991201.37,43960,19.94,74622.8,6.63,-29.13,-29.23,0,*75
1495991202.63,43961,19.94,74620.5,6.61,-29.17,-29.29,0,*78
1495991203.91,43962,19.94,74616.8,6.61,-29.29,-29.35,0,*7B
1495991205.13,43963,19.94,74616.8,6.63,-29.07,-29.13,0,*70
1495991206.36,43964,20.0,74620.3,6.63,-28.91,-28.97,0,*74
1495991207.59,43965,19.94,74620.8,6.63,-29.29,-29.45,0,*79
1495991208.81,43966,19.94,74622.0,6.63,-29.23,-29.39,0,*7B
1495991210.1,43967,19.94,74620.8,6.61,-29.51,-29.51,0,*73
1495991211.33,43968,19.94,74620.3,6.63,-29.39,-29.57,0,*76
1495991212.53,43969,19.94,74618.0,6.63,-29.07,-29.23,0,*79
1495991213.75,43970,19.94,74618.3,6.63,-28.79,-29.07,0,*7F
1495991214.95,43971,19.94,74616.8,6.63,-29.07,-29.23,0,*70
1495991216.16,43972,19.94,74618.5,6.63,-28.97,-29.13,0,*78
1495991217.38,43973,20.0,74620.8,6.63,-29.13,-29.23,0,*77
1495991218.66,43974,19.94,74618.3,6.61,-29.17,-29.35,0,*71
1495991219.91,43975,19.94,74620.8,6.59,-29.13,-29.13,0,*7B
1495991221.13,43976,19.94,74620.0,6.61,-28.85,-28.97,0,*70
1495991222.41,43977,19.94,74622.0,6.61,-28.79,-28.79,0,*72
1495991223.66,43978,20.0,74620.5,6.61,-29.29,-29.45,0,*77
1495991224.86,43979,19.94,74618.0,6.63,-29.57,-29.61,0,*7B
1495991226.09,43980,19.94,74618.5,6.63,-29.61,-29.73,0,*7B
1495991227.3,43981,20.0,74618.5,6.63,-29.45,-29.57,0,*7A
1495991228.53,43982,19.94,74618.8,6.61,-29.45,-29.61,0,*7E
1495991229.76,43983,19.94,74618.8,6.61,-29.61,-29.67,0,*7F
1495991231.04,43984,19.94,74620.0,6.61,-30.05,-30.17,0,*7D
1495991232.29,43985,19.94,74616.5,6.59,-30.05,-30.05,0,*74
1495991233.54,43986,19.94,74618.5,6.59,-30.01,-30.17,0,*70
1495991234.77,43987,20.0,74622.8,6.57,-30.23,-30.23,0,*78
1495991236.02,43988,19.94,74618.0,6.57,-29.95,-30.05,0,*76
1495991237.28,43989,20.0,74618.3,6.53,-29.95,-30.01,0,*77
1495991238.51,43990,20.0,74622.3,6.57,-29.95,-29.95,0,*7E
1495991239.76,43991,19.94,74616.0,6.53,-29.89,-29.95,0,*76
1495991241.01,43992,20.0,74618.3,6.53,-29.67,-29.73,0,*7D
1495991242.28,43993,19.94,74616.5,6.57,-29.51,-29.67,0,*78
1495991243.51,43994,19.94,74618.0,6.53,-29.45,-29.57,0,*7D
1495991244.75,43995,20.0,74618.5,6.53,-29.73,-29.61,0,*7C
1495991245.98,43996,19.94,74618.3,6.53,-29.61,-29.61,0,*7C
1495991247.21,43997,19.94,74616.8,6.53,-29.57,-29.61,0,*78
1495991248.43,43998,19.94,74616.3,6.53,-29.79,-29.79,0,*72
1495991249.66,43999,20.0,74618.8,6.51,-29.95,-29.95,0,*71
1495991250.9,44000,19.94,74616.0,6.49,-30.05,-30.05,0,*76
1495991252.11,44001,20.0,74616.8,6.49,-29.79,-29.83,0,*72
1495991253.39,44002,19.94,74618.3,6.51,-29.89,-29.89,0,*7D
1495991254.62,44003,19.94,74618.3,6.49,-29.95,-30.05,0,*74
1495991255.83,44004,19.94,74616.8,6.49,-29.95,-29.83,0,*75
1495991257.03,44005,20.0,74618.8,6.49,-29.95,-29.95,0,*73
1495991258.3,44006,20.0,74620.8,6.47,-30.05,-30.05,0,*7E
1495991259.57,44007,20.0,74618.5,6.47,-30.01,-30.05,0,*7B
1495991260.81,44008,20.0,74616.5,6.47,-30.05,-30.11,0,*75
1495991262.05,44009,20.0,74618.3,6.47,-30.05,-30.11,0,*74
1495991263.27,44010,20.0,74620.3,6.45,-30.05,-30.11,0,*7E
1495991264.52,44011,20.0,74618.0,6.45,-30.01,-30.01,0,*7A
1495991265.76,44012,20.0,74620.5,6.45,-30.05,-30.05,0,*79
1495991266.97,44013,20.0,74618.5,6.45,-30.05,-30.11,0,*7D
1495991268.22,44014,20.0,74618.5,6.45,-30.01,-30.05,0,*7B
1495991269.46,44015,20.0,74618.5,6.43,-30.05,-29.95,0,*79
1495991270.72,44016,20.0,74618.0,6.43,-29.89,-29.95,0,*76
1495991271.92,44017,20.0,74616.8,6.41,-29.95,-29.95,0,*78
1495991273.2,44018,20.0,74620.5,6.43,-29.89,-30.05,0,*79
1495991274.48,44019,20.0,74618.0,6.43,-29.89,-29.89,0,*74
1495991275.74,44020,20.0,74620.8,6.43,-29.89,-29.95,0,*73
1495991276.99,44021,20.0,74620.5,6.43,-29.89,-29.95,0,*72
1495991278.19,44022,20.0,74618.0,6.41,-29.79,-29.79,0,*7E
1495991279.38,44023,20.0,74620.8,6.41,-29.79,-29.79,0,*7F
1495991280.61,44024,19.94,74614.5,6.43,-29.57,-29.61,0,*7F
1495991281.84,44025,20.0,74620.0,6.41,-29.61,-29.73,0,*7A
1495991283.04,44026,20.0,74618.3,6.41,-29.45,-29.61,0,*7C
1495991284.25,44027,20.0,74616.3,6.41,-29.45,-29.57,0,*78
1495991285.46,44028,20.0,74620.5,6.41,-29.57,-29.61,0,*71
1495991286.66,44029,19.94,74616.3,6.41,-29.45,-29.45,0,*75
1495991287.92,44030,20.0,74620.5,6.43,-29.39,-29.45,0,*74
1495991289.13,44031,20.0,74618.0,6.41,-29.45,-29.45,0,*7C
1495991290.33,44032,19.94,74614.5,6.41,-29.61,-29.79,0,*76
1495991291.55,44033,20.0,74618.5,6.41,-29.73,-29.79,0,*74
1495991292.79,44034,20.0,74616.0,6.41,-29.73,-29.73,0,*79
1495991294.01,44035,20.0,74620.0,6.37,-30.01,-29.95,0,*7C
1495991295.22,44036,20.0,74620.0,6.41,-29.95,-29.95,0,*7B
1495991296.46,44037,20.0,74618.8,6.39,-30.01,-29.95,0,*70
1495991297.74,44038,19.94,74616.8,6.39,-30.01,-30.01,0,*7A
1495991298.98,44039,20.0,74620.3,6.37,-30.05,-30.05,0,*75
1495991300.23,44040,20.0,74618.8,6.37,-30.01,-30.01,0,*7B
1495991301.45,44041,19.94,74614.3,6.39,-29.79,-29.79,0,*74
1495991302.66,44042,20.0,74618.5,6.37,-29.57,-29.57,0,*79
1495991303.89,44043,20.0,74620.5,6.39,-29.45,-29.45,0,*76